When you browse on this site, cookies collect data to enhance your experience and personalize the content and advertising you see.
Visit our Privacy Policy to learn more. By continuing to use the site, you agree to this use of cookies and data.
  • In Österreich
  • Länderverzeichnis
  • Für 7 Tage
  • Wassertemperatur
  • Satellitenkarten
  • Wetterkarte
  • News
  • Widgets
  • user-avatar
    Anmelden

    Stündliche Wetter Kipungo

    Heute, 25 April, Donnerstag

    Zeit Temperatur Niederschläge Wind Luftdruck Luftfeuchtigkeit
    00:00 +21°C° 0 mm 1 m/S 654 mmHg 66%
    01:00 +21°C° 0 mm 1 m/S 654 mmHg 56%
    02:00 +20°C° 0 mm 1 m/S 654 mmHg 54%
    03:00 +20°C° 0 mm 1 m/S 654 mmHg 52%
    04:00 +20°C° 0 mm 1 m/S 654 mmHg 50%
    05:00 +20°C° 0 mm 1 m/S 654 mmHg 51%
    06:00 +20°C° 0 mm 1 m/S 655 mmHg 51%
    07:00 +19°C° 0 mm 0 m/S 655 mmHg 50%
    08:00 +23°C° 0 mm 0 m/S 656 mmHg 44%
    09:00 +28°C° 0 mm 1 m/S 657 mmHg 38%
    10:00 +31°C° 0 mm 1 m/S 658 mmHg 31%
    11:00 +32°C° 0 mm 1 m/S 657 mmHg 30%
    12:00 +33°C° 0 mm 1 m/S 657 mmHg 29%
    13:00 +34°C° 0 mm 1 m/S 657 mmHg 29%
    14:00 +33°C° 0 mm 1 m/S 656 mmHg 31%
    15:00 +32°C° 0 mm 1 m/S 655 mmHg 33%
    16:00 +31°C° 0 mm 1 m/S 654 mmHg 35%
    17:00 +29°C° 0 mm 1 m/S 654 mmHg 41%
    18:00 +26°C° 0 mm 1 m/S 654 mmHg 47%
    19:00 +24°C° 0 mm 1 m/S 654 mmHg 53%
    20:00 +23°C° 0 mm 1 m/S 654 mmHg 57%
    21:00 +23°C° 0 mm 1 m/S 654 mmHg 60%
    22:00 +22°C° 0 mm 1 m/S 654 mmHg 63%
    23:00 +21°C° 0 mm 1 m/S 654 mmHg 64%

    Morgen, 26 April, Freitag

    Zeit Temperatur Niederschläge Wind Luftdruck Luftfeuchtigkeit
    00:00 +21°C° 0 mm 1 m/S 654 mmHg 64%
    01:00 +18°C° 0 mm 0 m/S 654 mmHg 65%
    02:00 +18°C° 0 mm 0 m/S 653 mmHg 64%
    03:00 +18°C° 0 mm 0 m/S 653 mmHg 64%
    04:00 +18°C° 0 mm 0 m/S 653 mmHg 64%
    05:00 +18°C° 0 mm 0 m/S 653 mmHg 65%
    06:00 +18°C° 0 mm 0 m/S 654 mmHg 65%
    07:00 +19°C° 0 mm 0 m/S 654 mmHg 65%
    08:00 +24°C° 0 mm 1 m/S 655 mmHg 56%
    09:00 +27°C° 0 mm 1 m/S 656 mmHg 47%
    10:00 +30°C° 0 mm 2 m/S 656 mmHg 38%
    11:00 +31°C° 0 mm 2 m/S 656 mmHg 35%
    12:00 +32°C° 0 mm 2 m/S 655 mmHg 32%
    13:00 +34°C° 0 mm 2 m/S 655 mmHg 29%
    14:00 +34°C° 0 mm 2 m/S 654 mmHg 31%
    15:00 +32°C° 0 mm 2 m/S 654 mmHg 33%
    16:00 +32°C° 0 mm 1 m/S 653 mmHg 34%
    17:00 +29°C° 0 mm 1 m/S 653 mmHg 41%
    18:00 +27°C° 0 mm 1 m/S 653 mmHg 47%
    19:00 +25°C° 0 mm 1 m/S 653 mmHg 53%
    20:00 +24°C° 0 mm 1 m/S 653 mmHg 55%
    21:00 +23°C° 0 mm 1 m/S 653 mmHg 57%
    22:00 +23°C° 0 mm 1 m/S 654 mmHg 58%
    23:00 +23°C° 0 mm 1 m/S 654 mmHg 58%

    übermorgen, 27 April, Samstag

    Zeit Temperatur Niederschläge Wind Luftdruck Luftfeuchtigkeit
    00:00 +23°C° 0 mm 1 m/S 654 mmHg 57%
    01:00 +21°C° 0 mm 0 m/S 654 mmHg 57%
    02:00 +20°C° 0 mm 0 m/S 653 mmHg 61%
    03:00 +19°C° 0 mm 0 m/S 653 mmHg 65%
    04:00 +18°C° 0 mm 0 m/S 652 mmHg 70%
    05:00 +21°C° 0 mm 1 m/S 653 mmHg 70%
    06:00 +21°C° 0 mm 1 m/S 653 mmHg 70%
    07:00 +22°C° 0 mm 1 m/S 654 mmHg 70%
    08:00 +25°C° 0 mm 1 m/S 655 mmHg 60%
    09:00 +28°C° 0 mm 1 m/S 656 mmHg 50%
    10:00 +31°C° 0 mm 2 m/S 657 mmHg 40%
    11:00 +32°C° 0 mm 2 m/S 656 mmHg 36%
    12:00 +34°C° 0 mm 2 m/S 655 mmHg 32%
    13:00 +35°C° 0 mm 3 m/S 655 mmHg 27%
    14:00 +34°C° 0 mm 2 m/S 654 mmHg 29%
    15:00 +32°C° 0 mm 2 m/S 654 mmHg 30%
    16:00 +32°C° 0 mm 1 m/S 653 mmHg 32%
    17:00 +29°C° 0 mm 1 m/S 653 mmHg 38%
    18:00 +27°C° 0 mm 1 m/S 653 mmHg 43%
    19:00 +25°C° 0 mm 1 m/S 653 mmHg 49%
    20:00 +24°C° 0 mm 1 m/S 653 mmHg 52%
    21:00 +21°C° 0 mm 0 m/S 653 mmHg 55%
    22:00 +20°C° 0 mm 0 m/S 654 mmHg 58%
    23:00 +22°C° 0 mm 1 m/S 654 mmHg 58%

    28 April, Sonntag

    Zeit Temperatur Niederschläge Wind Luftdruck Luftfeuchtigkeit
    00:00 +22°C° 0 mm 1 m/S 654 mmHg 58%
    01:00 +21°C° 0 mm 1 m/S 653 mmHg 58%
    02:00 +21°C° 0 mm 1 m/S 653 mmHg 59%
    03:00 +18°C° 0 mm 0 m/S 653 mmHg 59%
    04:00 +17°C° 0 mm 0 m/S 652 mmHg 60%
    05:00 +18°C° 0 mm 0 m/S 653 mmHg 61%
    06:00 +18°C° 0 mm 0 m/S 653 mmHg 62%
    07:00 +18°C° 0 mm 0 m/S 654 mmHg 63%
    08:00 +24°C° 0 mm 1 m/S 655 mmHg 54%
    09:00 +27°C° 0 mm 1 m/S 656 mmHg 46%
    10:00 +31°C° 0 mm 2 m/S 657 mmHg 37%
    11:00 +32°C° 0 mm 2 m/S 656 mmHg 32%
    12:00 +34°C° 0 mm 3 m/S 656 mmHg 28%
    13:00 +35°C° 0 mm 3 m/S 655 mmHg 23%
    14:00 +34°C° 0 mm 3 m/S 655 mmHg 24%
    15:00 +34°C° 0 mm 3 m/S 654 mmHg 25%
    16:00 +32°C° 0 mm 2 m/S 654 mmHg 26%
    17:00 +29°C° 0 mm 2 m/S 654 mmHg 32%
    18:00 +27°C° 0 mm 2 m/S 654 mmHg 37%
    19:00 +24°C° 0 mm 1 m/S 654 mmHg 43%
    20:00 +24°C° 0 mm 1 m/S 654 mmHg 45%
    21:00 +23°C° 0 mm 1 m/S 654 mmHg 47%
    22:00 +20°C° 0 mm 0 m/S 655 mmHg 50%
    23:00 +20°C° 0 mm 0 m/S 655 mmHg 51%

    29 April, Montag

    Zeit Temperatur Niederschläge Wind Luftdruck Luftfeuchtigkeit
    00:00 +20°C° 0 mm 0 m/S 654 mmHg 52%
    01:00 +20°C° 0 mm 0 m/S 654 mmHg 52%
    02:00 +19°C° 0 mm 0 m/S 654 mmHg 55%
    03:00 +19°C° 0 mm 0 m/S 654 mmHg 58%
    04:00 +18°C° 0 mm 0 m/S 653 mmHg 61%
    05:00 +20°C° 0 mm 1 m/S 654 mmHg 63%
    06:00 +20°C° 0 mm 1 m/S 654 mmHg 65%
    07:00 +20°C° 0 mm 1 m/S 655 mmHg 67%
    08:00 +24°C° 0 mm 1 m/S 656 mmHg 57%
    09:00 +27°C° 0 mm 2 m/S 657 mmHg 48%
    10:00 +30°C° 0 mm 3 m/S 657 mmHg 39%
    11:00 +31°C° 0 mm 3 m/S 657 mmHg 35%
    12:00 +33°C° 0 mm 3 m/S 656 mmHg 31%
    13:00 +34°C° 0 mm 3 m/S 656 mmHg 27%
    14:00 +34°C° 0 mm 3 m/S 655 mmHg 28%
    15:00 +33°C° 0 mm 3 m/S 655 mmHg 29%
    16:00 +31°C° 0 mm 2 m/S 655 mmHg 29%
    17:00 +29°C° 0 mm 2 m/S 655 mmHg 34%
    18:00 +27°C° 0 mm 1 m/S 654 mmHg 39%
    19:00 +24°C° 0 mm 1 m/S 654 mmHg 44%
    20:00 +22°C° 0 mm 0 m/S 655 mmHg 44%
    21:00 +21°C° 0 mm 0 m/S 655 mmHg 45%
    22:00 +21°C° 0 mm 0 m/S 655 mmHg 45%
    23:00 +23°C° 0 mm 1 m/S 655 mmHg 48%

    30 April, Dienstag

    Zeit Temperatur Niederschläge Wind Luftdruck Luftfeuchtigkeit
    00:00 +22°C° 0 mm 1 m/S 655 mmHg 52%
    01:00 +22°C° 0 mm 1 m/S 655 mmHg 56%
    02:00 +21°C° 0 mm 1 m/S 654 mmHg 62%
    03:00 +20°C° 0 mm 1 m/S 654 mmHg 68%
    04:00 +19°C° 0 mm 1 m/S 654 mmHg 75%
    05:00 +19°C° 0 mm 1 m/S 654 mmHg 75%
    06:00 +19°C° 0 mm 1 m/S 655 mmHg 76%
    07:00 +20°C° 0 mm 1 m/S 655 mmHg 77%
    08:00 +23°C° 0 mm 2 m/S 656 mmHg 63%
    09:00 +26°C° 0 mm 3 m/S 657 mmHg 49%
    10:00 +29°C° 0 mm 4 m/S 658 mmHg 35%
    11:00 +32°C° 0 mm 4 m/S 657 mmHg 32%
    12:00 +33°C° 0 mm 4 m/S 656 mmHg 28%
    13:00 +34°C° 0 mm 4 m/S 656 mmHg 24%
    14:00 +34°C° 0 mm 3 m/S 655 mmHg 25%
    15:00 +33°C° 0 mm 3 m/S 655 mmHg 25%
    16:00 +33°C° 0 mm 3 m/S 655 mmHg 26%
    17:00 +29°C° 0 mm 2 m/S 654 mmHg 34%
    18:00 +26°C° 0 mm 2 m/S 654 mmHg 41%
    19:00 +24°C° 0 mm 1 m/S 654 mmHg 49%
    20:00 +23°C° 0 mm 1 m/S 654 mmHg 52%
    21:00 +22°C° 0 mm 1 m/S 655 mmHg 54%
    22:00 +22°C° 0 mm 1 m/S 655 mmHg 57%
    23:00 +22°C° 0 mm 1 m/S 655 mmHg 59%
    Mehr zeigen